Weather in Nizhniye Sergi

Russia / Sverdlovsk Oblast     56°39′30″N   59°18′04″E
temp.,
°C
wind,
m/s
gust,
m/s
humid.,
%
clouds,
%
prec.,
mm/h
press.,
hPa
HPBL,
m
15 may, sat
sat1523:00+17wsw225495 0.0 102322
02:00+15ssw22583 0.0 102326
05:00+14ssw246899 0.1 102375
08:00+19sw49528 0.0 1022323
11:00+25wsw593540 0.0 10211288
14:00+27wsw693231 0.0 10202152
17:00+26wnw5837100 0.0 10202066
20:00+23wsw3952100 0.0 1019348
16 may, sun
sun1623:00+19wsw3135450 0.0 1020365
02:00+18wsw3135769 0.0 1020345
05:00+16sw31265100 0.0 1020270
08:00+21wsw4114795 0.0 1021414
11:00+25w4733100 0.0 10201005
14:00+28wsw582355 0.0 10202589
17:00+28wsw57245 0.0 10192927
20:00+24wsw39413 0.0 1019309
17 may, mon
mon1723:00+18ssw38565 0.0 1019134
02:00+16ssw26634 0.0 101998
05:00+15ssw236923 0.0 102059
08:00+21sw395097 0.0 1019310
11:00+26wsw5103391 0.0 10181755
14:00+27wsw71124100 0.0 10182705
17:00+27w51028100 0.0 10172643
20:00+23w410425 0.0 1017573
18 may, tue
tue1823:00+17wsw226538 0.0 101834
02:00+16sw117257 0.0 101811
05:00+14sw2177100 0.0 101813
08:00+18wnw2561100 0.0 1019254
11:00+23wnw474051 0.0 10181576
14:00+26nw58312 0.0 10172320
17:00+26nw593235 0.0 10163193
20:00+22w595063 0.0 1017495
19 may, wed
wed1923:00+15wnw28870 0.6 1019188
02:00+13sse11940 0.0 102010
05:00+12ese11930 0.0 102110
08:00+17ese35640 0.0 1022400
11:00+22sse33440 0.0 10221050
14:00+27s11305 0.0 10212253
17:00+27ssw12295 0.0 10212411
20:00+22ssw25465 0.0 102193